Weather History for Defiance, OH

Change the Weather History Date:

Sunday, December 30, 2012

  Actual Average Record
Temperature  
Mean Temperature 22 °F -  
Max Temperature 28 °F 32 °F 65 °F (1990)
Min Temperature 16 °F 16 °F -13 °F (1983)
Degree Days  
Heating Degree Days 43    
Moisture  
Dew Point 17 °F    
Average Humidity 79    
Maximum Humidity 85    
Minimum Humidity 68    
Precipitation  
Precipitation 0.00 in - - ()
Sea Level Pressure  
Sea Level Pressure 30.32 in    
Wind  
Wind Speed 8 mph (SW)    
Max Wind Speed 13 mph    
Max Gust Speed 20 mph    
Visibility 9 miles    
Events      
Averages and records for this station are not official NWS values.
T = Trace of Precipitation, MM = Missing Value Source: NWS Daily Summary

Daily Weather History Graph

Daily Weather History Graph

Search for Another Location

Airport:

Trip Planner

Search our weather history database for the weather conditions in past years. The results will help you decide how hot, cold, wet, or windy it might be!

Date:

Astronomy

Dec. 30, 2012 Rise Set
Actual Time 8:03 AM EST 5:17 PM EST
Civil Twilight 7:32 AM EST 5:48 PM EST
Nautical Twilight 6:57 AM EST 6:23 PM EST
Astronomical Twilight 6:23 AM EST 6:57 PM EST
Moon 7:49 PM EST (12/30) 9:10 AM EST (12/30)
Length of Visible Light 10h 16m
Length of Day
9h 14m
Waning Gibbous, 95% of the Moon is Illuminated
Dec 30
Waning Gibbous
Jan 4
Last Quarter
Jan 11
New
Jan 18
First Quarter
Jan 26
Full

Hourly Weather History & Observations

Time (EST) Temp. Windchill Dew Point Humidity Pressure Visibility Wind Dir Wind Speed Gust Speed Precip Events Conditions
1:53 AM 28.0 °F 21.7 °F 24.1 °F 85% 30.17 in 9.0 mi WSW 5.8 mph - N/A   Overcast
2:53 AM 28.0 °F 20.8 °F 24.1 °F 85% 30.20 in 9.0 mi WSW 6.9 mph - N/A   Overcast
3:53 AM 27.0 °F 18.7 °F 21.9 °F 81% 30.22 in 10.0 mi West 8.1 mph - N/A   Overcast
4:53 AM 26.1 °F 17.6 °F 21.0 °F 81% 30.25 in 10.0 mi WSW 8.1 mph 19.6 mph N/A   Overcast
5:53 AM 25.0 °F 14.8 °F 21.0 °F 85% 30.28 in 10.0 mi WSW 10.4 mph 16.1 mph N/A   Overcast
6:53 AM 24.1 °F 14.4 °F 19.0 °F 81% 30.32 in 10.0 mi West 9.2 mph 17.3 mph N/A   Overcast
7:53 AM 23.0 °F 15.8 °F 18.0 °F 81% 30.35 in 10.0 mi Variable 5.8 mph - N/A   Overcast
8:53 AM 23.0 °F 13.9 °F 18.0 °F 81% 30.37 in 9.0 mi WSW 8.1 mph - N/A   Overcast
9:53 AM 21.9 °F 12.5 °F 17.1 °F 82% 30.38 in 7.0 mi WSW 8.1 mph - N/A   Overcast
10:53 AM 21.0 °F 10.6 °F 16.0 °F 81% 30.40 in 9.0 mi WSW 9.2 mph 16.1 mph N/A   Overcast
11:53 AM 21.9 °F 12.5 °F 16.0 °F 78% 30.40 in 9.0 mi SW 8.1 mph 16.1 mph N/A   Overcast
12:53 PM 21.0 °F 8.6 °F 15.1 °F 78% 30.38 in 10.0 mi SSW 12.7 mph - N/A   Overcast
1:48 PM 21.2 °F 10.1 °F 15.8 °F 80% 30.32 in 8.0 mi SSW 10.4 mph - N/A   Scattered Clouds
1:53 PM 21.9 °F 9.8 °F 14.0 °F 72% 30.36 in 8.0 mi SW 12.7 mph - N/A   Partly Cloudy
2:53 PM 21.9 °F 11.7 °F 14.0 °F 72% 30.35 in 8.0 mi SSW 9.2 mph - N/A   Clear
3:53 PM 23.0 °F 12.4 °F 14.0 °F 68% 30.35 in 8.0 mi SW 10.4 mph - N/A   Clear
4:53 PM 21.9 °F 13.4 °F 14.0 °F 72% 30.34 in 7.0 mi SSW 6.9 mph - N/A   Clear
5:53 PM 19.0 °F 10.0 °F 12.9 °F 77% 30.33 in 8.0 mi SSW 6.9 mph - N/A   Clear
6:53 PM 19.9 °F 10.1 °F 14.0 °F 78% 30.34 in 8.0 mi SSW 8.1 mph - N/A   Clear
7:53 PM 21.0 °F 9.9 °F 14.0 °F 74% 30.34 in 8.0 mi SSW 10.4 mph - N/A   Clear
8:53 PM 21.0 °F 11.4 °F 14.0 °F 74% 30.32 in 8.0 mi SSW 8.1 mph - N/A   Clear
9:53 PM 16.0 °F 7.4 °F 10.9 °F 81% 30.31 in 7.0 mi SSW 5.8 mph - N/A   Clear
10:53 PM 18.0 °F 7.7 °F 12.9 °F 81% 30.28 in 8.0 mi SSW 8.1 mph - N/A   Clear
11:53 PM 21.0 °F 11.4 °F 15.1 °F 78% 30.28 in 9.0 mi SSW 8.1 mph - N/A   Clear